AQI (38)

Current Conditions for Foresthill, CA. Sunny, Dry   
Visibility: 10 miles
Space WX Alerts: WATCH:  Geomagnetic Storm Category G2 Predicted ( Latest Alert ) - Issue Time: 2021 Apr 22 1849 UTC

  Summary / Temperature 

Current Temperature
68.6°F
20.3°C
(24/hr Ago)
68.0°F
(Apparent temp)
65.9°F
Comfortable
Wind Chill Graphs
68.6°F 

68.6°F/ 20.3°C
 --- Virtual Temp: 70.7°F ---

 Temp Rate:

 24/hr Difference:

 Avg Running Temp:

 Todays High:

 Todays Low:

 Y-days High:

 Y-days Low:

 Todays WChill:

 Y-days WChill:

 Evapotranspiration:

-0.1°F/hr 

+0.59999999999999°F

67.7°F

69.8°F 1:54pm

48.3°F 6:35am

68.2°F 4:49pm

49.3°F 7:08am

44.5°F 7:10am

46.5°F 7:56am

0.144 in

115' Above Ground

 Temperature:

 6'AGL VRS 115'AGL:

 Avg Running Temp:

 Humidity:

 Todays High:

 Todays Low:

 Y-days High:

 Y-days Low:

67.0°F 

-1.6°F

65.4°F

44% 

67.0°F 4:29pm

61.0°F 12:00am

65.0°F 3:02pm

59.0°F 11:31am

Temp & Humidity Graphs

  Wind 

Wind Speed

 7.0 mph

Gusting to

 8.0 mph

Wind from SW

227°  SW

Light breeze

 Avg speed:

 Wind Run:

 Peak Gust:

  2.0 mph 

30.0 miles

  15.0 mph 1:51pm

  Almanac  

Moon age: 10 days,1 hours,53 minutes,77%

Waxing Gibbous
77%
Illuminated
10 days in cycle

 Moonrise:

 Moonset:

 Sunrise:

 Sunset:

 Solar Noon:

2:45pm

4:06am

6:14am

7:45pm

1:02pm

2min 20s more daylight tomorrow 

  Solar Radiation 

(Current Solar)
  536 W/m2 (84%)
(Todays High)
 888 W/m2@12:52pm
Feels like: 77.4°F in the sun

Rain

 Rain Today:

 Rain Rate (/hr):

 Rain last hour:

 Rain Yesterday:

 This Month:

 Season Total:

29 Days Since Last Rain Day

0.00 in

0.000 in

0.00 in

0.00 in

0.00 in

22.63 in

Updated Time

Updated: 4/22/21  4:30pm

(Updated  sec ago)

Humidity & Barometer

 Humidity:

 Wetbulb:

 Dew Point:

 Barometer:

40% 

56.1°F 

43.3°F 

29.876 inHg 

 Baro Trend:  Steady 
Northern Calif
Preparedness
Fire 
Level 

    UV Index  

(Current UV)
2.2  Low
(Todays High) @ 12:37pm
5.9   Medium

National Weather Service Forecast

Today

Today: Sunny
Sunny
Tonight

Tonight: Mostly Clear
Mostly Clear
Friday

Friday: Sunny
Sunny
Friday
Night
Friday Night: Mostly Cloudy
Mostly Cloudy
Saturday

Saturday: Mostly Cloudy then Chance Rain Showers
Mostly Cloudy
Saturday
Night
Saturday Night: Rain
Rain
Hi 67 °F Lo 49 °F Hi 68 °F ↓ Lo 47 °F Hi 56 °F Lo 41 °F

Foresthill Probe 2 Stats  
Foresthill Probe 2: is located on Thomas Street
at 3000 feet. The main Foresthill Weather site
is located on Melody ln at the 2860 foot elevation

Calm
65.4°F
18.6°C
Temp Rate:
-0.5°F
Calm
Gusting to
4.0 mph
(Humidity)
45%
Wind from WNW
286°  WNW
Updated: 22/04/21 - 16:30:55
 Todays High: 69.5°F 14:00
 Todays Low: 46.4°F 06:24
 Rain Today: 0.00 in
 Season Total: 23.52 in

Foresthill Wx: Monthly,Yearly, Highs and Lows 

Foresthill  
This Weather Data is coming from the main Foresthill
Weather site located on Melody ln at the 2860 foot
elevation
Not Foresthill Probe 2
Weather Data
Month
  High
Month
  Low
Year
High
Year
Low
Temp 78.7°F
4/19/21
40.6°F
4/4/21
78.7°F
4/19/21
25.3°F
1/26/21
Humidity 90%
4/5/21
11%
4/18/21
100%
1/3/21
9%
3/30/21
Heat Index 77.6°F
4/19/21
45.0°F
4/14/21
77.6°F
4/19/21
31.2°F
1/26/21
Wind Chill 78.7°F
4/19/21
33.9°F
4/15/21
78.7°F
4/19/21
12.5°F
1/26/21
Wind Gust 31 mph
4/5/21
0 mph
4/1/21
50 mph
1/19/21
0 mph
1/1/21
Barometer 30.18 in
4/8/21
29.73 in
4/13/21
30.52 in
2/21/21
29.73 in
4/13/21
ET 0.23 in
4/17/21
0.00 in
4/1/21
0.23 in
4/17/21
0.00 in
1/1/21
Dew Point 48.1°F
4/21/21
14.4°F
4/18/21
51.9°F
1/13/21
3.6°F
2/24/21
Visible Satellite Pacific Satellite US Radar Satellite Imagery Sacramento,CA.  (click to enlarge)
NWS Weather Forecast - Summary
Updated: Thursday, April 22, 2021 - 2:43pm PDT
NWS Weather Forecast: Today and Tonight (Updated: Thu, 22-Apr-2021 1:43am PDT)
Today

Today: Sunny
Sunny

Hi 67 °F
NWS forecast: Sunny, with a high near 67. South southwest wind 5 to 8 mph.
Tonight

Tonight: Mostly Clear
Mostly Clear

Lo 49 °F
NWS forecast: Mostly clear, with a low around 49. Southeast wind 3 to 8 mph.
YR.NO 10 Day Weather forecast
Last update: 04/22/2021 @ 06:16
Next update: 04/22/2021 @ 12:16
Provided by: 22
      Temperature Precipitation Pressure Wind  
Today
04/22/2021
15:00 18:00 68°F   29.86 inHg Gentle breeze from west-southwest 8 mph
  18:00 00:00 64°F   29.83 inHg Light breeze from southwest 5 mph
    (Click to enlarge)
meteogram

    Forecast for next 9 days

      Temperature Precip Pressure Wind  
Friday
04/23/2021
00:00 06:00 46°F   29.88 inHg Light breeze from east-northeast 6 mph
  06:00 12:00 41°F   29.89 inHg Light breeze from east 5 mph
  12:00 18:00 68°F   29.94 inHg Light breeze from southwest 6 mph
  18:00 00:00 66°F   29.89 inHg Light breeze from south-southwest 7 mph
      Temperature Precip Pressure Wind  
Saturday
04/24/2021
00:00 06:00 52°F 0.02 in 29.96 inHg Light breeze from south-southeast 6 mph
  06:00 12:00 46°F   29.98 inHg Light breeze from southeast 5 mph
  12:00 18:00 55°F   30.00 inHg Gentle breeze from southwest 9 mph
  17:00 23:00 54°F 0.02 in 29.94 inHg Gentle breeze from southwest 9 mph
  23:00 05:00 45°F 0.03 in 29.95 inHg Light air from south-southeast 3 mph
      Temperature Precip Pressure Wind  
Sunday
04/25/2021
05:00 11:00 43°F 0.22 in 29.89 inHg Light breeze from south 6 mph
  11:00 17:00 37°F 0.33 in 29.94 inHg Gentle breeze from south-southeast 10 mph
  17:00 23:00 41°F 0.10 in 29.89 inHg Light breeze from south-southeast 6 mph
  23:00 05:00 39°F 0.03 in 29.94 inHg Light breeze from south-southeast 6 mph
      Temperature Precip Pressure Wind  
Monday
04/26/2021
05:00 11:00 34°F   29.94 inHg Light breeze from east-northeast 4 mph
  11:00 17:00 50°F   29.90 inHg Light air from west 3 mph
  17:00 23:00 54°F   29.83 inHg Light breeze from west-northwest 6 mph
  23:00 05:00 37°F   29.90 inHg Light breeze from east 5 mph
      Temperature Precip Pressure Wind  
Tuesday
04/27/2021
05:00 11:00 30°F   29.92 inHg Light breeze from east-northeast 5 mph
  11:00 17:00 61°F < 0.01 in 29.95 inHg Light breeze from west-northwest 4 mph
  17:00 23:00 63°F   29.98 inHg Light breeze from west-northwest 6 mph
  23:00 05:00 37°F   30.11 inHg Light breeze from east-northeast 6 mph
      Temperature Precip Pressure Wind  
Wednesday
04/28/2021
05:00 11:00 37°F   30.16 inHg Gentle breeze from east-northeast 9 mph
  11:00 17:00 70°F   30.18 inHg Light air from west-southwest 1 mph
  17:00 23:00 70°F   30.18 inHg Light breeze from west 5 mph
  23:00 05:00 52°F   30.26 inHg Light air from east 3 mph
      Temperature Precip Pressure Wind  
Thursday
04/29/2021
05:00 11:00 41°F   30.24 inHg Light breeze from east-northeast 5 mph
  11:00 17:00 72°F   30.27 inHg Light breeze from west 4 mph
  17:00 23:00 73°F   30.20 inHg Light breeze from west-southwest 5 mph
  23:00 05:00 52°F   30.21 inHg Light breeze from east-northeast 5 mph
      Temperature Precip Pressure Wind  
Friday
04/30/2021
05:00 11:00 46°F   30.13 inHg Light breeze from east-northeast 5 mph
  11:00 17:00 77°F   30.08 inHg Light breeze from west-southwest 4 mph
  17:00 23:00 79°F   29.96 inHg Light breeze from west-southwest 5 mph
  23:00 05:00 55°F   29.95 inHg Light breeze from east 5 mph
      Temperature Precip Pressure Wind  
Saturday
05/01/2021
05:00 11:00 52°F   29.85 inHg Light breeze from east-southeast 7 mph
How Close Are We To this Month's Temperature Record ?
Updated Thursday, Apr 22, 2021- 4:30:00 PM

Current Temperature: 68.6°F

April's High: Temperature Record 83.2°F - Set on Sun, Apr 22, 2012 - 2:12:00 PM
We are currently 14.6°F Less than this Month's record High

April's Low: Temperature Record 31.4°F - Set on Thu, Apr 5, 2012 - 6:23:00 AM
We are currently 37.2°F More than this Month's record Low

Weather History For Thursday, April 22, 2021


On this Day - In Weather History ...
Data courtesy of weatherforyou.com
powered by Cumulus v1.9.3 (1059)
Ambient Weather VWS v14.00
Top Website Map Copyright © 2007 - 2021 Foresthillweather.com Never base important decisions on this or any weather information obtained from the Internet